Location: Alberta Star Party
(51.6612°N, 112.9089°W)
Time: 21:11:36
(UTC-07:00)

Amateur Radio Satellites - All Passes

Search period start: 27 January 2015 20:41
Search period end: 28 January 2015 20:41
Location: Alberta Star Party, 51.6612°N, 112.9089°W

Satellite Date Start Highest point End Downlink Frequencies (MHz)
Time Altitude Azimuth
UWE-3 27 Jan 20:43:12 20:47:24 34° 65° (ENE) 20:51:39 435.000/436.395/437.385
CANX-2 27 Jan 20:45:10 20:49:24 56° 259° (W) 20:53:39 2200.000
AAUSAT CUBESAT 2 27 Jan 21:03:38 21:07:49 61° 259° (W) 21:12:00 437.432
Oscar 11 27 Jan 21:04:46 21:09:07 76° 74° (ENE) 21:13:29 145.826/435.025
HO-68 27 Jan 21:05:28 21:12:21 48° 261° (W) 21:19:15 435.675
VELOX 1 27 Jan 21:08:21 21:11:59 26° 62° (ENE) 21:15:42 145.980
DELFI C3 27 Jan 21:08:26 21:12:29 68° 73° (ENE) 21:16:34 145.870
CUTE 1.7 + AOD 2 27 Jan 21:09:58 21:13:58 36° 264° (W) 21:17:56 437.475
CUBESAT XI-V 27 Jan 21:14:59 21:17:39 15° 304° (NW) 21:20:12 437.345
CUBEBUG 1 27 Jan 21:22:54 21:25:37 17° 58° (ENE) 21:28:29 437.445
BRITE-PL 27 Jan 21:26:52 21:31:13 26° 271° (W) 21:35:45 437.365/2234.400
GOMX 1 27 Jan 21:30:21 21:34:57 32° 268° (W) 21:39:44 467.674
CUBEBUG 2 27 Jan 21:35:22 21:40:09 80° 258° (WSW) 21:44:59 437.445
UKube-1 27 Jan 21:39:12 21:43:33 79° 256° (WSW) 21:47:56 .
YUBILEINY 27 Jan 21:43:14 21:51:33 47° 293° (WNW) 21:59:52 435.215
SEEDS 27 Jan 21:43:58 21:47:15 21° 270° (W) 21:50:27 437.485
CINEMA 3 27 Jan 21:49:12 21:53:55 42° 264° (W) 21:58:43 145.822/145.860
ZACube-1 27 Jan 21:50:23 21:55:01 78° 258° (WSW) 21:59:40 437.345
DOVE 4 27 Jan 21:50:38 21:55:03 28° 270° (W) 21:59:33 437.250
50 SAT 27 Jan 21:57:59 22:02:04 60° 72° (ENE) 22:06:10 437.505
DX 1 27 Jan 21:58:13 22:02:28 51° 260° (W) 22:06:46 434.975-435.025
TISAT 1 27 Jan 21:59:38 22:00:45 11° 53° (NE) 22:02:03 437.305
FUNcube-1 27 Jan 22:03:01 22:07:35 61° 259° (W) 22:12:11 145.935
AIST 1 27 Jan 22:05:19 22:09:11 31° 69° (ENE) 22:13:05
HUMSAT D 27 Jan 22:06:23 22:10:45 89° 254° (WSW) 22:15:09 437.325/437.525
ANTELSAT 27 Jan 22:08:54 22:11:43 16° 87° (E) 22:14:38 437.575/2403.000
POPSAT HIP 1 27 Jan 22:11:20 22:11:34 10° 83° (E) 22:12:02 437.405
ESTCUBE 1 27 Jan 22:12:28 22:16:44 45° 68° (ENE) 22:21:03 437.505/2401.250
DUCHIFAT 1 27 Jan 22:14:16 22:15:16 11° 84° (E) 22:16:30 145.980
COMPASS 1 27 Jan 22:14:25 22:16:31 13° 274° (W) 22:18:25 437.405
AISAT 27 Jan 22:14:38 22:19:06 85° 254° (WSW) 22:23:38 437.250
TIGRISAT 27 Jan 22:17:23 22:20:35 19° 88° (E) 22:23:50 435.000
UWE-3 27 Jan 22:19:30 22:23:54 38° 264° (W) 22:28:19 435.000/436.395/437.385
Oscar 11 27 Jan 22:43:20 22:45:54 15° 273° (W) 22:48:19 145.826/435.025
VELOX 1 27 Jan 22:44:05 22:48:22 47° 261° (W) 22:52:43 145.980
DELFI C3 27 Jan 22:45:48 22:48:15 15° 273° (W) 22:50:34 145.870
NANOSAT C BR1 27 Jan 22:46:39 22:50:01 22° 91° (E) 22:53:27 145.865
SPROUT 27 Jan 22:49:39 22:53:19 28° 64° (ENE) 22:57:05 437.525
CUBEBUG 1 27 Jan 22:57:10 23:01:31 78° 256° (WSW) 23:05:56 437.445
QB50P2 27 Jan 22:59:45 23:03:34 30° 94° (E) 23:07:23 145.880/145.840
UNISAT 6 27 Jan 23:08:42 23:13:11 56° 100° (E) 23:17:31 437.425
QB50P1 27 Jan 23:09:33 23:13:34 36° 96° (E) 23:17:33 145.935-145.965
SWISSCUBE 27 Jan 23:14:34 23:16:56 14° 53° (NE) 23:19:27 437.505
CUBEBUG 2 27 Jan 23:15:36 23:17:44 12° 277° (W) 23:19:40 437.445
UKube-1 27 Jan 23:19:30 23:20:35 11° 276° (W) 23:21:26 .
POLYITAN 1 27 Jan 23:23:08 23:27:22 49° 99° (E) 23:31:34 437.675
ISS 27 Jan 23:23:58 23:26:40 24° 147° (SSE) 23:29:24 145.825
BUGSAT 1 27 Jan 23:29:36 23:33:43 44° 98° (E) 23:37:51 437.445
BEESAT 27 Jan 23:29:56 23:32:55 17° 56° (NE) 23:36:03 436.000
ZACube-1 27 Jan 23:30:34 23:32:16 12° 277° (W) 23:33:44 437.345
TISAT 1 27 Jan 23:31:37 23:35:50 66° 72° (ENE) 23:40:06 437.305
ITUPSAT 1 27 Jan 23:32:42 23:35:47 18° 56° (NE) 23:38:59 437.325
50 SAT 27 Jan 23:34:47 23:37:37 17° 271° (W) 23:40:21 437.505
AIST 1 27 Jan 23:42:59 23:46:54 33° 269° (W) 23:50:47
POPSAT HIP 1 27 Jan 23:43:59 23:48:21 76° 102° (ESE) 23:52:41 437.405
ANTELSAT 27 Jan 23:44:36 23:49:08 70° 288° (WNW) 23:53:31 437.575/2403.000
HUMSAT D 27 Jan 23:45:23 23:47:19 12° 276° (W) 23:49:02 437.325/437.525
YUBILEINY 27 Jan 23:46:56 23:51:23 14° 322° (NW) 23:55:30 435.215
DUCHIFAT 1 27 Jan 23:47:36 23:51:58 81° 104° (ESE) 23:56:16 145.980
ESTCUBE 1 27 Jan 23:50:05 23:53:51 25° 268° (W) 23:57:35 437.505/2401.250
TIGRISAT 27 Jan 23:53:21 23:57:50 60° 289° (WNW) 00:02:10 435.000
AISAT 27 Jan 23:54:42 23:56:33 12° 276° (W) 23:58:12 437.250
GONETS M04 27 Jan 23:56:57 00:01:31 16° 72° (ENE) 00:06:32
KKS-1 28 Jan 00:17:47 00:18:57 11° 52° (NE) 00:20:18 437.445
O/OREOS (USA 219) 28 Jan 00:19:10 00:21:42 15° 35° (NE) 00:24:22 437.305
NANOSAT C BR1 28 Jan 00:22:00 00:26:11 48° 291° (WNW) 00:30:20 145.865
SPROUT 28 Jan 00:25:15 00:29:19 40° 263° (W) 00:33:26 437.525
QB50P2 28 Jan 00:35:34 00:39:34 36° 294° (WNW) 00:43:31 145.880/145.840
CUBEBUG 1 28 Jan 00:37:50 00:38:48 10° 277° (W) 00:39:31 437.445
QB50P1 28 Jan 00:45:35 00:49:25 31° 295° (WNW) 00:53:11 145.935-145.965
UNISAT 6 28 Jan 00:46:06 00:49:40 23° 300° (WNW) 00:53:05 437.425
SWISSCUBE 28 Jan 00:49:21 00:54:05 74° 72° (ENE) 00:58:53 437.505
ISS 28 Jan 00:59:34 01:02:51 72° 166° (SSE) 01:06:10 145.825
POLYITAN 1 28 Jan 00:59:35 01:03:05 24° 298° (WNW) 01:06:32 437.675
M-CUBED/EXP-1 PRIME 28 Jan 01:04:57 01:07:09 15° 54° (NE) 01:09:22 437.505
BEESAT 28 Jan 01:05:26 01:10:13 87° 259° (W) 01:15:01 436.000
BUGSAT 1 28 Jan 01:05:30 01:09:03 25° 297° (WNW) 01:12:33 437.445
ITUPSAT 1 28 Jan 01:08:22 01:13:09 84° 255° (WSW) 01:17:57 437.325
TISAT 1 28 Jan 01:09:23 01:12:11 16° 272° (W) 01:14:51 437.305
Oscar 19 28 Jan 01:10:40 01:14:41 23° 90° (E) 01:18:47 437.125/150
POPSAT HIP 1 28 Jan 01:20:57 01:23:47 17° 302° (WNW) 01:26:30 437.405
ANTELSAT 28 Jan 01:23:13 01:25:10 12° 307° (NW) 01:26:57 437.575/2403.000
DUCHIFAT 1 28 Jan 01:24:38 01:27:19 16° 302° (WNW) 01:29:51 145.980
ITAMSAT 1 28 Jan 01:24:55 01:26:45 12° 82° (E) 01:28:51 435.822/435.867
TIGRISAT 28 Jan 01:32:28 01:33:44 11° 308° (NW) 01:34:47 435.000
AUBIESAT-1 28 Jan 01:38:15 01:41:28 26° 60° (ENE) 01:44:33 437.475
STARS 28 Jan 01:47:36 01:51:46 40° 67° (ENE) 01:55:59 437.465
GONETS M04 28 Jan 01:48:10 01:56:46 65° 94° (E) 02:05:24
KKS-1 28 Jan 01:50:22 01:54:47 60° 71° (ENE) 01:59:15 437.445
O/OREOS (USA 219) 28 Jan 01:57:34 02:02:08 62° 58° (ENE) 02:06:43 437.305
Gurwin Techsat 1B 28 Jan 02:11:46 02:15:47 22° 89° (E) 02:19:55 435.225
SWISSCUBE 28 Jan 02:29:22 02:32:34 17° 272° (W) 02:35:39 437.505
ISS 28 Jan 02:36:03 02:39:23 89° 187° (S) 02:42:42 145.825
M-CUBED/EXP-1 PRIME 28 Jan 02:37:51 02:41:50 74° 250° (WSW) 02:45:32 437.505
BEESAT 28 Jan 02:46:27 02:48:54 13° 275° (W) 02:51:09 436.000
Oscar 19 28 Jan 02:49:24 02:54:31 62° 290° (WNW) 02:59:35 437.125/150
ITUPSAT 1 28 Jan 02:49:37 02:51:55 13° 276° (W) 02:53:59 437.325
AIST 2 28 Jan 02:59:56 03:02:07 14° 112° (ESE) 03:04:28 435.215
ITAMSAT 1 28 Jan 03:02:06 03:07:20 71° 103° (ESE) 03:12:35 435.822/435.867
BEESAT 2 28 Jan 03:09:40 03:13:24 33° 121° (ESE) 03:17:11 435.950
AUBIESAT-1 28 Jan 03:12:42 03:16:21 35° 256° (WSW) 03:19:46 437.475
MOZHAYETS 4 28 Jan 03:19:57 03:23:44 26° 63° (ENE) 03:27:34
DANDE 28 Jan 03:21:41 03:27:35 22° 79° (E) 03:33:52 436.750
STARS 28 Jan 03:24:30 03:28:23 28° 266° (W) 03:32:16 437.465
AO-7 28 Jan 03:24:39 03:30:41 22° 86° (E) 03:36:59 29.400- 29.500
BEESAT 3 28 Jan 03:24:54 03:28:53 49° 125° (SE) 03:32:57 437.485
HORYU 2 28 Jan 03:25:50 03:29:45 29° 94° (E) 03:33:40 437.375
KKS-1 28 Jan 03:28:34 03:31:52 19° 270° (W) 03:35:06 437.445
O/OREOS (USA 219) 28 Jan 03:37:45 03:41:11 21° 257° (WSW) 03:44:32 437.305
GONETS M04 28 Jan 03:46:13 03:54:17 38° 298° (WNW) 04:02:13
Gurwin Techsat 1B 28 Jan 03:51:01 03:56:20 68° 290° (WNW) 04:01:37 435.225
YUBILEINY 28 Jan 03:54:26 03:56:31 11° 31° (NNE) 03:59:00 435.215
CUSAT 1 28 Jan 03:56:07 04:03:32 39° 88° (E) 04:11:05 437.405
PRISM 28 Jan 04:11:24 04:12:46 12° 54° (NE) 04:14:17 437.425
ISS 28 Jan 04:12:37 04:15:45 40° 206° (SSW) 04:18:52 145.825
JAS-2 28 Jan 04:26:27 04:30:59 26° 92° (E) 04:36:00 435.910
Oscar 19 28 Jan 04:30:30 04:32:59 13° 310° (NW) 04:35:17 437.125/150
AIST 2 28 Jan 04:35:51 04:40:08 85° 131° (SE) 04:44:30 435.215
ITAMSAT 1 28 Jan 04:42:20 04:46:26 23° 303° (WNW) 04:50:25 435.822/435.867
STRAND 1 28 Jan 04:44:12 04:47:25 17° 54° (NE) 04:50:47 437.568
BEESAT 2 28 Jan 04:47:32 04:51:33 44° 321° (NW) 04:55:36 435.950
MOZHAYETS 4 28 Jan 04:56:20 05:00:47 48° 262° (W) 05:05:15
DANDE 28 Jan 05:01:36 05:09:58 76° 98° (E) 05:18:35 436.750
HORYU 2 28 Jan 05:02:22 05:06:33 39° 294° (WNW) 05:10:39 437.375
BEESAT 3 28 Jan 05:03:24 05:07:13 33° 326° (NW) 05:11:02 437.485
RS-15 28 Jan 05:04:32 05:14:17 42° 112° (ESE) 05:24:19 29.354- 29.394
CUBESAT XI-V 28 Jan 05:08:31 05:12:22 27° 63° (ENE) 05:16:17 437.345
AO-7 28 Jan 05:16:30 05:24:56 83° 110° (ESE) 05:33:16 29.400- 29.500
CUTE-I 28 Jan 05:18:00 05:19:00 11° 80° (E) 05:20:20 437.470
PCSat 28 Jan 05:20:52 05:26:08 56° 121° (ESE) 05:31:28 145.827
Gurwin Techsat 1B 28 Jan 05:32:30 05:35:29 15° 309° (NW) 05:38:18 435.225
CUSAT 1 28 Jan 05:37:58 05:46:19 67° 288° (WNW) 05:54:34 437.405
PRISM 28 Jan 05:43:32 05:47:38 74° 73° (ENE) 05:51:46 437.425
YUBILEINY 28 Jan 05:49:06 05:56:58 36° 61° (ENE) 06:04:58 435.215
ISS 28 Jan 05:51:18 05:51:38 10° 223° (SW) 05:51:51 145.825
GONETS M04 28 Jan 05:51:40 05:54:36 12° 327° (NNW) 05:57:09
JAS-2 28 Jan 06:11:09 06:16:32 61° 290° (WNW) 06:22:29 435.910
AIST 2 28 Jan 06:15:40 06:19:17 25° 332° (NNW) 06:22:53 435.215
STRAND 1 28 Jan 06:20:53 06:25:59 86° 75° (ENE) 06:31:09 437.568
BEESAT 2 28 Jan 06:27:59 06:30:46 17° 344° (NNW) 06:33:32 435.950
Cubesat XI-IV 28 Jan 06:34:42 06:39:50 44° 98° (E) 06:45:00 437.490
BEESAT 3 28 Jan 06:44:04 06:46:32 15° 349° (N) 06:48:58 437.485
CUBESAT XI-V 28 Jan 06:45:12 06:49:38 46° 262° (W) 06:54:08 437.345
DANDE 28 Jan 06:46:29 06:54:16 36° 301° (WNW) 07:01:56 436.750
CUTE-I 28 Jan 06:54:59 07:00:20 63° 102° (ESE) 07:05:41 437.470
PCSat 28 Jan 07:04:46 07:09:50 38° 322° (NW) 07:14:54 145.827
AO-7 28 Jan 07:09:51 07:17:04 33° 311° (NW) 07:24:07 29.400- 29.500
RS-15 28 Jan 07:15:05 07:26:00 76° 318° (NW) 07:37:12 29.354- 29.394
PRISM 28 Jan 07:21:31 07:23:45 14° 273° (W) 07:25:50 437.425
CUSAT 1 28 Jan 07:24:38 07:31:01 22° 311° (NW) 07:36:59 437.405
YUBILEINY 28 Jan 07:45:52 07:54:35 69° 265° (W) 08:03:16 435.215
BRITE-PL 28 Jan 07:47:52 07:51:07 16° 82° (E) 07:54:32 437.365/2234.400
GOMX 1 28 Jan 07:50:45 07:52:09 11° 78° (ENE) 07:53:51 467.674
AIST 2 28 Jan 07:56:51 07:59:18 14° 356° (N) 08:01:43 435.215
JAS-2 28 Jan 07:58:12 08:00:52 13° 310° (NW) 08:03:24 435.910
STRAND 1 28 Jan 08:02:43 08:05:58 16° 274° (W) 08:09:04 437.568
BEESAT 2 28 Jan 08:08:13 08:10:32 14° 7° (N) 08:12:51 435.950
DOVE 4 28 Jan 08:08:34 08:09:54 11° 79° (E) 08:11:32 437.250
Cubesat XI-IV 28 Jan 08:15:01 08:19:53 35° 297° (WNW) 08:24:43 437.490
BEESAT 3 28 Jan 08:23:44 08:26:13 15° 12° (NNE) 08:28:44 437.485
CANX-2 28 Jan 08:26:07 08:28:59 18° 88° (E) 08:31:56 2200.000
HO-68 28 Jan 08:27:05 08:32:55 27° 90° (E) 08:38:54 435.675
CUTE-I 28 Jan 08:35:39 08:40:06 26° 301° (WNW) 08:44:27 437.470
DANDE 28 Jan 08:36:51 08:40:36 13° 325° (NW) 08:43:56 436.750
UNISAT 6 28 Jan 08:38:14 08:41:09 17° 57° (ENE) 08:44:12 437.425
AAUSAT CUBESAT 2 28 Jan 08:42:48 08:45:15 15° 87° (E) 08:47:49 437.432
POLYITAN 1 28 Jan 08:48:44 08:50:30 13° 55° (NE) 08:52:25 437.675
CUTE 1.7 + AOD 2 28 Jan 08:49:57 08:53:35 27° 93° (E) 08:57:13 437.475
PCSat 28 Jan 08:51:08 08:54:47 18° 347° (NNW) 08:58:24 145.827
BUGSAT 1 28 Jan 08:53:50 08:54:21 10° 53° (NE) 08:55:02 437.445
AO-7 28 Jan 09:03:41 09:07:25 14° 337° (NNW) 09:10:57 29.400- 29.500
POPSAT HIP 1 28 Jan 09:08:09 09:10:57 18° 59° (ENE) 09:13:52 437.405
DUCHIFAT 1 28 Jan 09:11:22 09:14:16 18° 59° (ENE) 09:17:16 145.980
ANTELSAT 28 Jan 09:12:42 09:16:46 30° 64° (ENE) 09:20:54 437.575/2403.000
TIGRISAT 28 Jan 09:20:55 09:25:10 34° 65° (ENE) 09:29:25 435.000
SEEDS 28 Jan 09:21:56 09:26:01 47° 98° (E) 09:30:05 437.485
CUBEBUG 2 28 Jan 09:22:41 09:25:33 17° 86° (E) 09:28:32 437.445
UKube-1 28 Jan 09:23:25 09:25:09 12° 85° (E) 09:27:04 .
BRITE-PL 28 Jan 09:24:51 09:30:38 80° 103° (ESE) 09:36:14 437.365/2234.400
GOMX 1 28 Jan 09:26:03 09:31:33 63° 100° (E) 09:36:50 467.674
RS-15 28 Jan 09:29:54 09:40:17 44° 349° (NNW) 09:50:57 29.354- 29.394
ZACube-1 28 Jan 09:35:20 09:37:53 15° 86° (E) 09:40:34 437.345
AIST 2 28 Jan 09:36:20 09:39:26 19° 19° (NNE) 09:42:34 435.215
CINEMA 3 28 Jan 09:38:57 09:43:32 37° 95° (E) 09:47:57 145.822/145.860
DX 1 28 Jan 09:41:51 09:44:59 19° 90° (E) 09:48:13 434.975-435.025
DOVE 4 28 Jan 09:43:35 09:48:53 66° 100° (E) 09:53:57 437.250
YUBILEINY 28 Jan 09:44:30 09:49:54 18° 288° (WNW) 09:54:54 435.215
NANOSAT C BR1 28 Jan 09:44:32 09:48:22 34° 66° (ENE) 09:52:18 145.865
BEESAT 2 28 Jan 09:46:24 09:50:03 27° 31° (NNE) 09:53:41 435.950
FUNcube-1 28 Jan 09:47:14 09:50:25 19° 88° (E) 09:53:39 145.935
HUMSAT D 28 Jan 09:48:01 09:49:06 11° 83° (E) 09:50:24 437.325/437.525
COMPASS 1 28 Jan 09:50:03 09:54:15 76° 102° (ESE) 09:58:25 437.405
GONETS M04 28 Jan 09:56:03 09:59:46 13° 37° (NE) 10:03:52
QB50P2 28 Jan 09:57:55 10:02:01 45° 69° (ENE) 10:06:10 145.880/145.840
CANX-2 28 Jan 10:01:10 10:05:22 59° 288° (WNW) 10:09:31 2200.000
BEESAT 3 28 Jan 10:01:38 10:05:30 35° 35° (NE) 10:09:21 437.485
AISAT 28 Jan 10:01:52 10:04:01 13° 85° (E) 10:06:22 437.250
UWE-3 28 Jan 10:04:17 10:08:23 32° 94° (E) 10:12:25 435.000/436.395/437.385
QB50P1 28 Jan 10:07:32 10:11:43 55° 70° (ENE) 10:15:58 145.935-145.965
UNISAT 6 28 Jan 10:12:40 10:17:24 87° 256° (WSW) 10:22:08 437.425
HO-68 28 Jan 10:14:16 10:21:26 77° 292° (WNW) 10:28:35 435.675
AAUSAT CUBESAT 2 28 Jan 10:17:17 10:21:26 67° 287° (WNW) 10:25:33 437.432
DELFI C3 28 Jan 10:18:34 10:22:35 55° 100° (E) 10:26:34 145.870
POLYITAN 1 28 Jan 10:21:27 10:25:46 75° 73° (ENE) 10:30:07 437.675
Oscar 11 28 Jan 10:22:54 10:27:15 73° 103° (ESE) 10:31:33 145.826/435.025
BUGSAT 1 28 Jan 10:25:00 10:29:04 63° 72° (ENE) 10:33:14 437.445
CUTE 1.7 + AOD 2 28 Jan 10:25:41 10:29:38 38° 293° (WNW) 10:33:33 437.475
VELOX 1 28 Jan 10:29:43 10:33:17 23° 91° (E) 10:36:55 145.980
PCSat 28 Jan 10:36:42 10:40:17 18° 13° (NNE) 10:43:55 145.827
CUBEBUG 1 28 Jan 10:42:07 10:44:29 14° 86° (E) 10:47:00 437.445
POPSAT HIP 1 28 Jan 10:42:08 10:46:25 72° 257° (WSW) 10:50:45 437.405
AIST 1 28 Jan 10:42:44 10:44:45 13° 83° (E) 10:46:56
DUCHIFAT 1 28 Jan 10:45:27 10:49:43 68° 259° (WSW) 10:54:02 145.980
PHONESAT 2.4 28 Jan 10:46:33 10:46:44 10° 163° (SSE) 10:46:58 2401.200-2431.200
ANTELSAT 28 Jan 10:48:57 10:53:28 43° 262° (W) 10:57:58 437.575/2403.000
SO-50 28 Jan 10:51:52 10:55:47 29° 118° (ESE) 10:59:54 436.795
AO-7 28 Jan 10:55:52 10:56:30 10° 6° (N) 10:57:12 29.400- 29.500
Oscar 19 28 Jan 10:57:14 10:59:12 12° 49° (NE) 11:01:20 437.125/150
TIGRISAT 28 Jan 10:57:31 11:01:55 37° 264° (W) 11:06:16 435.000
UKube-1 28 Jan 10:57:40 11:02:04 89° 105° (ESE) 11:06:26 .
CUBEBUG 2 28 Jan 10:58:14 11:02:55 73° 287° (WNW) 11:07:24 437.445
SEEDS 28 Jan 10:58:15 11:01:39 23° 297° (WNW) 11:04:56 437.485
BRITE-PL 28 Jan 11:04:08 11:08:34 23° 303° (WNW) 11:12:50 437.365/2234.400
GOMX 1 28 Jan 11:04:42 11:09:18 27° 300° (WNW) 11:13:42 467.674
50 SAT 28 Jan 11:07:18 11:11:16 47° 99° (E) 11:15:10 437.505
ZACube-1 28 Jan 11:10:24 11:14:56 76° 286° (WNW) 11:19:18 437.345
AIST 2 28 Jan 11:14:41 11:18:57 55° 42° (NE) 11:23:09 435.215
CINEMA 3 28 Jan 11:16:12 11:20:45 36° 295° (WNW) 11:25:05 145.822/145.860
DX 1 28 Jan 11:17:18 11:21:40 59° 290° (WNW) 11:26:00 434.975-435.025
NANOSAT C BR1 28 Jan 11:20:26 11:24:17 32° 265° (W) 11:28:10 145.865
HUMSAT D 28 Jan 11:21:24 11:25:43 84° 104° (ESE) 11:29:57 437.325/437.525
DOVE 4 28 Jan 11:21:58 11:26:14 25° 301° (WNW) 11:30:19 437.250
FUNcube-1 28 Jan 11:22:47 11:27:14 59° 289° (WNW) 11:31:32 145.935
BEESAT 2 28 Jan 11:24:27 11:28:39 68° 232° (SW) 11:32:46 435.950
COMPASS 1 28 Jan 11:26:55 11:29:31 16° 301° (WNW) 11:32:00 437.405
VERMONT LUNAR 28 Jan 11:29:41 11:31:29 14° 176° (S) 11:33:18 437.305
QB50P2 28 Jan 11:34:39 11:38:10 24° 268° (W) 11:41:41 145.880/145.840
ESTCUBE 1 28 Jan 11:36:26 11:40:48 46° 99° (E) 11:45:11 437.505/2401.250
AISAT 28 Jan 11:36:50 11:41:23 88° 286° (WNW) 11:45:55 437.250
BEESAT 3 28 Jan 11:39:46 11:43:47 46° 236° (SW) 11:47:44 437.485
UWE-3 28 Jan 11:40:47 11:45:01 36° 294° (WNW) 11:49:04 435.000/436.395/437.385
QB50P1 28 Jan 11:44:47 11:47:59 20° 270° (W) 11:51:08 145.935-145.965
RS-15 28 Jan 11:44:50 11:55:31 49° 21° (NNE) 12:06:39 29.354- 29.394
GONETS M04 28 Jan 11:51:31 11:59:45 44° 66° (ENE) 12:07:59
UNISAT 6 28 Jan 11:52:33 11:54:59 13° 275° (W) 11:57:12 437.425
DELFI C3 28 Jan 11:54:34 11:57:31 19° 299° (WNW) 12:00:22 145.870
AAUSAT CUBESAT 2 28 Jan 11:55:22 11:56:22 11° 306° (NW) 11:57:13 437.432
POLYITAN 1 28 Jan 11:59:45 12:02:19 15° 273° (W) 12:04:44 437.675
Oscar 11 28 Jan 12:00:06 12:02:59 17° 301° (WNW) 12:05:44 145.826/435.025
Gurwin Techsat 1B 28 Jan 12:02:03 12:04:06 13° 49° (NE) 12:06:23 435.225
BUGSAT 1 28 Jan 12:02:23 12:05:04 16° 272° (W) 12:07:41 437.445
HO-68 28 Jan 12:02:53 12:08:14 23° 313° (NW) 12:13:25 435.675
VELOX 1 28 Jan 12:05:48 12:10:11 50° 291° (WNW) 12:14:32 145.980
SPROUT 28 Jan 12:06:43 12:10:22 25° 92° (E) 12:14:01 437.525
CUBEBUG 1 28 Jan 12:17:03 12:21:31 81° 285° (WNW) 12:25:58 437.445
AIST 1 28 Jan 12:17:37 12:21:52 76° 282° (WNW) 12:26:10
PCSat 28 Jan 12:20:14 12:25:16 37° 37° (NE) 12:30:19 145.827
PHONESAT 2.4 28 Jan 12:22:21 12:24:24 14° 180° (S) 12:26:28 2401.200-2431.200
SO-50 28 Jan 12:31:30 12:36:06 58° 319° (NW) 12:40:52 436.795
Oscar 19 28 Jan 12:32:31 12:37:35 56° 69° (ENE) 12:42:42 437.125/150
UKube-1 28 Jan 12:35:07 12:37:40 15° 304° (NW) 12:40:06 .
CUBEBUG 2 28 Jan 12:36:34 12:38:51 13° 306° (NW) 12:40:57 437.445
AO-7 28 Jan 12:40:46 12:45:57 19° 34° (NE) 12:51:22 29.400- 29.500
50 SAT 28 Jan 12:42:56 12:46:09 22° 298° (WNW) 12:49:16 437.505
SWISSCUBE 28 Jan 12:46:01 12:48:09 13° 84° (E) 12:50:29 437.505
TISAT 1 28 Jan 12:46:54 12:51:10 57° 101° (E) 12:55:24 437.305
ITAMSAT 1 28 Jan 12:47:05 12:51:37 32° 62° (ENE) 12:56:15 435.822/435.867
ZACube-1 28 Jan 12:48:26 12:50:35 13° 306° (NW) 12:52:33 437.345
CUSAT 1 28 Jan 12:51:05 12:52:38 11° 33° (NNE) 12:54:22 437.405
AIST 2 28 Jan 12:53:43 12:57:21 26° 242° (WSW) 13:00:53 435.215
DX 1 28 Jan 12:56:05 12:57:06 11° 308° (NW) 12:57:57 434.975-435.025
HUMSAT D 28 Jan 12:58:28 13:00:58 15° 303° (WNW) 13:03:21 437.325/437.525
BEESAT 28 Jan 13:01:23 13:04:23 17° 87° (E) 13:07:31 436.000
FUNcube-1 28 Jan 13:01:40 13:02:43 11° 308° (NW) 13:03:36 145.935
ITUPSAT 1 28 Jan 13:04:34 13:07:41 18° 88° (E) 13:10:58 437.325
BEESAT 2 28 Jan 13:05:15 13:06:09 10° 250° (WSW) 13:06:51 435.950
VERMONT LUNAR 28 Jan 13:07:39 13:08:44 11° 193° (SSW) 13:09:47 437.305
ESTCUBE 1 28 Jan 13:13:42 13:17:31 27° 297° (WNW) 13:21:16 437.505/2401.250
AISAT 28 Jan 13:14:45 13:17:25 15° 304° (NW) 13:19:58 437.250
Gurwin Techsat 1B 28 Jan 13:37:57 13:43:06 56° 69° (ENE) 13:48:20 435.225
SPROUT 28 Jan 13:42:30 13:46:40 43° 292° (WNW) 13:50:46 437.525
GONETS M04 28 Jan 13:48:31 13:56:55 55° 269° (W) 14:05:15
CUBEBUG 1 28 Jan 13:54:57 13:57:16 14° 305° (NW) 13:59:27 437.445
RS-15 28 Jan 13:57:54 14:09:11 87° 229° (SW) 14:20:59 29.354- 29.394
DANDE 28 Jan 13:58:02 14:03:45 23° 49° (NE) 14:08:41 436.750
AIST 1 28 Jan 13:59:07 14:00:28 11° 304° (WNW) 14:01:38
PHONESAT 2.4 28 Jan 14:01:22 14:02:05 10° 196° (SSW) 14:02:45 2401.200-2431.200
PCSat 28 Jan 14:03:39 14:08:59 57° 240° (WSW) 14:14:17 145.827
Oscar 19 28 Jan 14:12:57 14:17:19 26° 269° (W) 14:21:36 437.125/150
SO-50 28 Jan 14:13:52 14:17:37 22° 342° (NNW) 14:21:24 436.795
SWISSCUBE 28 Jan 14:22:03 14:26:53 84° 107° (ESE) 14:31:41 437.505
TISAT 1 28 Jan 14:23:25 14:26:41 21° 299° (WNW) 14:29:51 437.305
ITAMSAT 1 28 Jan 14:26:01 14:31:01 46° 261° (W) 14:36:03 435.822/435.867
AO-7 28 Jan 14:29:05 14:37:02 51° 58° (ENE) 14:45:04 29.400- 29.500
HORYU 2 28 Jan 14:29:17 14:33:41 53° 69° (ENE) 14:38:06 437.375
CUSAT 1 28 Jan 14:31:59 14:38:25 36° 60° (ENE) 14:43:30 437.405
BEESAT 28 Jan 14:38:04 14:42:53 77° 287° (WNW) 14:47:40 436.000
ITUPSAT 1 28 Jan 14:41:24 14:46:12 74° 289° (WNW) 14:50:59 437.325
JAS-2 28 Jan 14:46:14 14:50:01 21° 57° (ENE) 14:53:51 435.910
STARS 28 Jan 15:08:26 15:12:35 37° 97° (E) 15:16:44 437.465
KKS-1 28 Jan 15:12:44 15:17:12 58° 101° (E) 15:21:38 437.445
Gurwin Techsat 1B 28 Jan 15:18:58 15:23:28 27° 269° (W) 15:27:55 435.225
DANDE 28 Jan 15:41:11 15:48:41 87° 75° (ENE) 15:54:18 436.750
GONETS M04 28 Jan 15:48:13 15:51:52 13° 292° (WNW) 15:55:01
M-CUBED/EXP-1 PRIME 28 Jan 15:49:51 15:52:47 29° 103° (ESE) 15:55:46 437.505
PCSat 28 Jan 15:50:22 15:51:25 10° 258° (WSW) 15:52:09 145.827
SO-50 28 Jan 15:56:25 15:59:46 18° 6° (N) 16:03:10 436.795
SWISSCUBE 28 Jan 16:01:00 16:04:13 18° 304° (NW) 16:07:18 437.505
HORYU 2 28 Jan 16:07:09 16:10:42 22° 269° (W) 16:14:10 437.375
RS-15 28 Jan 16:10:58 16:20:23 31° 254° (WSW) 16:29:49 29.354- 29.394
CUSAT 1 28 Jan 16:15:11 16:21:47 48° 269° (W) 16:26:46 437.405
O/OREOS (USA 219) 28 Jan 16:16:05 16:19:38 24° 105° (ESE) 16:23:18 437.305
BEESAT 28 Jan 16:17:24 16:20:03 15° 306° (NW) 16:22:33 436.000
ITUPSAT 1 28 Jan 16:20:50 16:23:23 14° 307° (NW) 16:25:47 437.325
AO-7 28 Jan 16:21:50 16:29:56 51° 260° (W) 16:38:03 29.400- 29.500
AUBIESAT-1 28 Jan 16:23:31 16:26:49 64° 108° (ESE) 16:30:09 437.475
Cubesat XI-IV 28 Jan 16:23:54 16:28:01 24° 57° (ENE) 16:32:15 437.490
JAS-2 28 Jan 16:29:19 16:34:45 75° 256° (WSW) 16:39:58 435.910
CUTE-I 28 Jan 16:43:29 16:48:05 31° 61° (ENE) 16:52:48 437.470
STARS 28 Jan 16:45:03 16:49:02 31° 296° (WNW) 16:52:56 437.465
MOZHAYETS 4 28 Jan 16:46:11 16:50:07 28° 93° (E) 16:54:05
KKS-1 28 Jan 16:50:02 16:53:32 22° 300° (WNW) 16:56:56 437.445
HO-68 28 Jan 17:19:23 17:21:55 12° 34° (NNE) 17:24:42 435.675
M-CUBED/EXP-1 PRIME 28 Jan 17:25:01 17:27:47 24° 301° (WNW) 17:30:31 437.505
DANDE 28 Jan 17:25:54 17:30:58 21° 283° (WNW) 17:35:04 436.750
SO-50 28 Jan 17:37:17 17:41:41 32° 30° (NNE) 17:46:09 436.795
O/OREOS (USA 219) 28 Jan 17:54:22 17:58:47 52° 304° (NW) 18:03:16 437.305
AUBIESAT-1 28 Jan 17:59:41 18:01:26 13° 307° (NW) 18:03:05 437.475
Cubesat XI-IV 28 Jan 18:02:23 18:07:42 71° 256° (WSW) 18:13:05 437.490
JAS-2 28 Jan 18:18:57 18:20:59 12° 277° (W) 18:22:43 435.910
AO-7 28 Jan 18:22:44 18:25:13 11° 284° (WNW) 18:27:05 29.400- 29.500
CUTE-I 28 Jan 18:22:51 18:28:01 50° 260° (W) 18:33:14 437.470
MOZHAYETS 4 28 Jan 18:23:12 18:27:32 42° 292° (WNW) 18:31:49
STRAND 1 28 Jan 18:26:42 18:30:21 20° 88° (E) 18:34:08 437.568
CUBESAT XI-V 28 Jan 18:36:27 18:40:36 31° 94° (E) 18:44:47 437.345
SEEDS 28 Jan 18:47:16 18:48:23 11° 54° (NE) 18:49:39 437.485
PRISM 28 Jan 18:56:27 19:00:34 57° 101° (ESE) 19:04:39 437.425
YUBILEINY 28 Jan 18:58:14 19:05:26 32° 82° (E) 19:12:51 435.215
HO-68 28 Jan 19:01:25 19:07:49 38° 57° (ENE) 19:14:18 435.675
GOMX 1 28 Jan 19:02:50 19:06:45 22° 57° (ENE) 19:10:53 467.674
BRITE-PL 28 Jan 19:03:28 19:07:51 28° 60° (ENE) 19:12:34 437.365/2234.400
CINEMA 3 28 Jan 19:11:55 19:14:03 13° 52° (NE) 19:16:22 145.822/145.860
COMPASS 1 28 Jan 19:13:12 19:15:41 16° 58° (ENE) 19:18:17 437.405
SO-50 28 Jan 19:17:46 19:22:40 71° 231° (SW) 19:27:35 436.795
DOVE 4 28 Jan 19:18:09 19:22:00 22° 58° (ENE) 19:26:03 437.250
CANX-2 28 Jan 19:24:16 19:27:52 27° 64° (ENE) 19:31:30 2200.000
UWE-3 28 Jan 19:34:54 19:35:16 10° 51° (NE) 19:35:51 435.000/436.395/437.385
O/OREOS (USA 219) 28 Jan 19:37:09 19:39:21 13° 327° (NNW) 19:41:28 437.305
AAUSAT CUBESAT 2 28 Jan 19:39:03 19:42:19 23° 63° (ENE) 19:45:40 437.432
DELFI C3 28 Jan 19:40:14 19:41:23 11° 55° (NE) 19:42:42 145.870
Cubesat XI-IV 28 Jan 19:46:42 19:48:56 12° 278° (W) 19:50:54 437.490
CUTE 1.7 + AOD 2 28 Jan 19:48:02 19:52:02 39° 68° (ENE) 19:56:03 437.475
Oscar 11 28 Jan 19:48:41 19:51:27 17° 59° (ENE) 19:54:21 145.826/435.025
STRAND 1 28 Jan 20:05:01 20:10:10 73° 289° (WNW) 20:15:18 437.568
CUBESAT XI-V 28 Jan 20:13:47 20:18:11 40° 293° (WNW) 20:22:33 437.345
SEEDS 28 Jan 20:19:15 20:23:30 67° 72° (ENE) 20:27:45 437.485
UKube-1 28 Jan 20:23:03 20:26:24 23° 61° (ENE) 20:29:50 .
CUBEBUG 2 28 Jan 20:25:42 20:29:45 28° 63° (ENE) 20:33:52 437.445
50 SAT 28 Jan 20:29:16 20:29:27 10° 54° (NE) 20:29:49 437.505
PRISM 28 Jan 20:32:43 20:35:46 20° 300° (WNW) 20:38:44 437.425
